Weather History for Okmulgee, OK

Change the Weather History Date:

Sunday, November 25, 2012

  Actual Average (KMKO) Record (KMKO)
Temperature  
Mean Temperature 56 °F -  
Max Temperature 68 °F 56 °F 72 °F (1998)
Min Temperature 44 °F 35 °F 24 °F (2010)
Degree Days  
Heating Degree Days 9    
Growing Degree Days 6 (Base 50)    
Moisture  
Dew Point 31 °F    
Average Humidity 45    
Maximum Humidity 71    
Minimum Humidity 28    
Precipitation  
Precipitation 0.00 in - - ()
Sea Level Pressure  
Sea Level Pressure 29.91 in    
Wind  
Wind Speed 7 mph (SSE)    
Max Wind Speed 12 mph    
Max Gust Speed 16 mph    
Visibility 10 miles    
Events      
Averages and records for this station are not official NWS values.
T = Trace of Precipitation, MM = Missing Value Source: NWS Daily Summary

Daily Weather History Graph

Daily Weather History Graph

Search for Another Location

Airport:

Trip Planner

Search our weather history database for the weather conditions in past years. The results will help you decide how hot, cold, wet, or windy it might be!

Date:

Astronomy

Nov. 25, 2012 Rise Set
Actual Time 7:09 AM CST 5:11 PM CST
Civil Twilight 6:42 AM CST 5:39 PM CST
Nautical Twilight 6:10 AM CST 6:10 PM CST
Astronomical Twilight 5:40 AM CST 6:41 PM CST
Moon 3:26 PM CST (11/25) 4:28 AM CST (11/25)
Length of Visible Light 10h 57m
Length of Day
10h 01m
Waxing Gibbous, 93% of the Moon is Illuminated
Nov 25
Waxing Gibbous
Nov 28
Full
Dec 6
Last Quarter
Dec 13
New
Dec 19
First Quarter

Hourly Weather History & Observations

Time (CST) Temp. Windchill Dew Point Humidity Pressure Visibility Wind Dir Wind Speed Gust Speed Precip Events Conditions
12:15 AM 48.2 °F - 23.0 °F 37% 30.01 in 10.0 mi South 10.4 mph - N/A   Clear
12:35 AM 50.0 °F - 23.0 °F 35% 30.01 in 10.0 mi SSW 10.4 mph - N/A   Clear
12:55 AM 48.2 °F - 23.0 °F 37% 30.00 in 10.0 mi SSW 6.9 mph - N/A   Clear
1:15 AM 48.2 °F - 23.0 °F 37% 30.00 in 10.0 mi SSW 6.9 mph - N/A   Clear
1:35 AM 46.4 °F 43.5 °F 23.0 °F 40% 30.00 in 10.0 mi South 5.8 mph - N/A   Clear
1:55 AM 46.4 °F 44.3 °F 23.0 °F 40% 30.00 in 10.0 mi South 4.6 mph - N/A   Clear
2:15 AM 44.6 °F 40.7 °F 24.8 °F 46% 30.00 in 10.0 mi South 6.9 mph - N/A   Clear
2:35 AM 44.6 °F 42.2 °F 24.8 °F 46% 29.99 in 10.0 mi South 4.6 mph - N/A   Clear
2:55 AM 44.6 °F 41.4 °F 24.8 °F 46% 29.98 in 10.0 mi South 5.8 mph - N/A   Clear
3:15 AM 44.6 °F 40.7 °F 26.6 °F 49% 29.98 in 10.0 mi South 6.9 mph - N/A   Clear
3:35 AM 44.6 °F 41.4 °F 24.8 °F 46% 29.97 in 10.0 mi South 5.8 mph - N/A   Clear
3:55 AM 44.6 °F 41.4 °F 24.8 °F 46% 29.97 in 10.0 mi South 5.8 mph - N/A   Clear
4:15 AM 44.6 °F 41.4 °F 26.6 °F 49% 29.96 in 10.0 mi South 5.8 mph - N/A   Clear
4:35 AM 44.6 °F 41.4 °F 26.6 °F 49% 29.95 in 10.0 mi South 5.8 mph - N/A   Clear
4:55 AM 44.6 °F 41.4 °F 26.6 °F 49% 29.95 in 10.0 mi South 5.8 mph - N/A   Clear
5:15 AM 44.6 °F 41.4 °F 26.6 °F 49% 29.94 in 10.0 mi South 5.8 mph - N/A   Clear
5:35 AM 44.6 °F 41.4 °F 26.6 °F 49% 29.94 in 10.0 mi South 5.8 mph - N/A   Clear
5:55 AM 44.6 °F 40.2 °F 26.6 °F 49% 29.94 in 10.0 mi South 8.1 mph - N/A   Clear
6:15 AM 46.4 °F 41.5 °F 26.6 °F 46% 29.93 in 10.0 mi South 10.4 mph - N/A   Clear
6:35 AM 46.4 °F 41.9 °F 26.6 °F 46% 29.93 in 10.0 mi South 9.2 mph - N/A   Clear
6:55 AM 46.4 °F 41.9 °F 26.6 °F 46% 29.93 in 10.0 mi SSW 9.2 mph 16.1 mph N/A   Clear
7:15 AM 46.4 °F 41.9 °F 26.6 °F 46% 29.94 in 10.0 mi South 9.2 mph - N/A   Clear
7:35 AM 46.4 °F 42.4 °F 28.4 °F 50% 29.94 in 10.0 mi South 8.1 mph - N/A   Clear
7:55 AM 46.4 °F 41.9 °F 28.4 °F 50% 29.95 in 10.0 mi South 9.2 mph - N/A   Clear
8:15 AM 48.2 °F - 28.4 °F 46% 29.95 in 10.0 mi South 10.4 mph - N/A   Clear
8:35 AM 50.0 °F - 28.4 °F 43% 29.95 in 10.0 mi South 9.2 mph - N/A   Clear
8:55 AM 51.8 °F - 28.4 °F 41% 29.96 in 10.0 mi SSW 6.9 mph - N/A   Clear
9:15 AM 51.8 °F - 28.4 °F 41% 29.96 in 10.0 mi South 10.4 mph - N/A   Clear
9:35 AM 53.6 °F - 28.4 °F 38% 29.96 in 10.0 mi SSW 9.2 mph - N/A   Clear
9:55 AM 53.6 °F - 28.4 °F 38% 29.96 in 10.0 mi South 10.4 mph - N/A   Clear
10:15 AM 55.4 °F - 30.2 °F 38% 29.96 in 10.0 mi SSW 9.2 mph - N/A   Clear
10:35 AM 57.2 °F - 30.2 °F 36% 29.95 in 10.0 mi South 8.1 mph - N/A   Clear
10:55 AM 59.0 °F - 30.2 °F 34% 29.94 in 10.0 mi South 8.1 mph - N/A   Clear
11:15 AM 60.8 °F - 32.0 °F 34% 29.93 in 10.0 mi South 6.9 mph - N/A   Clear
11:35 AM 60.8 °F - 32.0 °F 34% 29.91 in 10.0 mi SSE 6.9 mph - N/A   Clear
11:55 AM 62.6 °F - 32.0 °F 32% 29.91 in 10.0 mi SSE 6.9 mph - N/A   Clear
12:15 PM 64.4 °F - 32.0 °F 30% 29.89 in 10.0 mi South 11.5 mph - N/A   Clear
12:35 PM 64.4 °F - 32.0 °F 30% 29.88 in 10.0 mi South 9.2 mph - N/A   Clear
12:55 PM 64.4 °F - 32.0 °F 30% 29.87 in 10.0 mi South 6.9 mph - N/A   Clear
1:15 PM 66.2 °F - 33.8 °F 30% 29.86 in 10.0 mi South 9.2 mph - N/A   Clear
1:35 PM 68.0 °F - 33.8 °F 28% 29.85 in 10.0 mi South 8.1 mph - N/A   Clear
1:55 PM 68.0 °F - 33.8 °F 28% 29.84 in 10.0 mi SSW 8.1 mph - N/A   Clear
2:15 PM 68.0 °F - 33.8 °F 28% 29.83 in 10.0 mi South 6.9 mph - N/A   Clear
2:35 PM 68.0 °F - 33.8 °F 28% 29.83 in 10.0 mi SSE 10.4 mph - N/A   Clear
2:55 PM 68.0 °F - 33.8 °F 28% 29.82 in 10.0 mi South 9.2 mph - N/A   Clear
3:15 PM 68.0 °F - 33.8 °F 28% 29.82 in 10.0 mi South 9.2 mph - N/A   Clear
3:35 PM 68.0 °F - 33.8 °F 28% 29.82 in 10.0 mi South 10.4 mph - N/A   Clear
3:55 PM 68.0 °F - 35.6 °F 30% 29.83 in 10.0 mi SSE 11.5 mph - N/A   Clear
4:15 PM 68.0 °F - 35.6 °F 30% 29.83 in 10.0 mi SSW 9.2 mph - N/A   Clear
4:35 PM 66.2 °F - 35.6 °F 32% 29.84 in 10.0 mi South 4.6 mph - N/A   Clear
4:55 PM 64.4 °F - 35.6 °F 34% 29.84 in 10.0 mi South 4.6 mph - N/A   Clear
5:15 PM 62.6 °F - 35.6 °F 37% 29.85 in 10.0 mi Calm Calm - N/A   Clear
5:35 PM 60.8 °F - 35.6 °F 39% 29.85 in 10.0 mi ESE 3.5 mph - N/A   Clear
5:55 PM 57.2 °F - 35.6 °F 44% 29.86 in 10.0 mi East 3.5 mph - N/A   Clear
6:15 PM 53.6 °F - 35.6 °F 51% 29.86 in 10.0 mi East 4.6 mph - N/A   Clear
6:35 PM 51.8 °F - 35.6 °F 54% 29.86 in 10.0 mi East 3.5 mph - N/A   Clear
6:55 PM 51.8 °F - 35.6 °F 54% 29.86 in 10.0 mi ENE 3.5 mph - N/A   Clear
7:15 PM 51.8 °F - 35.6 °F 54% 29.87 in 10.0 mi ENE 3.5 mph - N/A   Clear
7:35 PM 50.0 °F - 37.4 °F 62% 29.87 in 10.0 mi NE 4.6 mph - N/A   Clear
7:55 PM 50.0 °F - 35.6 °F 58% 29.87 in 10.0 mi ENE 3.5 mph - N/A   Clear
8:15 PM 50.0 °F - 35.6 °F 58% 29.87 in 10.0 mi NE 4.6 mph - N/A   Clear
8:35 PM 50.0 °F - 37.4 °F 62% 29.87 in 10.0 mi NE 5.8 mph - N/A   Clear
8:55 PM 48.2 °F - 37.4 °F 66% 29.88 in 10.0 mi NE 4.6 mph - N/A   Clear
9:15 PM 48.2 °F - 37.4 °F 66% 29.88 in 10.0 mi NE 5.8 mph - N/A   Clear
9:35 PM 48.2 °F - 37.4 °F 66% 29.88 in 10.0 mi ENE 5.8 mph - N/A   Clear
9:55 PM 46.4 °F 43.5 °F 37.4 °F 71% 29.88 in 10.0 mi NNE 5.8 mph - N/A   Clear
10:15 PM 50.0 °F - 37.4 °F 62% 29.88 in 10.0 mi ENE 5.8 mph - N/A   Clear
10:35 PM 48.2 °F - 37.4 °F 66% 29.87 in 10.0 mi NE 5.8 mph - N/A   Clear
10:55 PM 48.2 °F - 37.4 °F 66% 29.87 in 10.0 mi NE 5.8 mph - N/A   Clear
11:15 PM 48.2 °F - 37.4 °F 66% 29.87 in 10.0 mi NE 6.9 mph - N/A   Clear
11:35 PM 50.0 °F - 37.4 °F 62% 29.87 in 10.0 mi NE 5.8 mph - N/A   Clear
11:55 PM 50.0 °F - 39.2 °F 66% 29.86 in 10.0 mi ENE 6.9 mph - N/A   Clear